| time (UTC) | temp C | wind direction | speed KPH | gust KPH | rain 1hr cm | rain 24hr cm | rain mn cm | humidity % | barometer mb |
| 20260906131606 | 22 | 96 | 0.0 | 1.6 | 0.00 | 0.00 | 0.00 | 93 | 1019.0 |
| 20260906130119 | 21 | 0 | 0.0 | 1.6 | 0.00 | 0.00 | 0.00 | 93 | 1018.8 |
| 20260906124602 | 21 | 0 | 0.0 | 3.2 | 0.00 | 0.00 | 0.00 | 94 | 1018.6 |
| 20260906123104 | 21 | 0 | 0.0 | 0.0 | 0.00 | 0.00 | 0.00 | 95 | 1018.5 |
| 20260906121607 | 21 | 0 | 0.0 | 0.0 | 0.00 | 0.00 | 0.00 | 95 | 1018.6 |
| 20260906120104 | 21 | 0 | 0.0 | 0.0 | 0.00 | 0.00 | 0.00 | 94 | 1018.4 |
| 20260906114621 | 21 | 0 | 0.0 | 0.0 | 0.00 | 0.00 | 0.00 | 94 | 1018.3 |
| 20260906113104 | 21 | 0 | 0.0 | 0.0 | 0.00 | 0.00 | 0.00 | 94 | 1018.1 |
| 20260906111618 | 21 | 0 | 0.0 | 0.0 | 0.00 | 0.00 | 0.00 | 93 | 1017.7 |
| 20260906110117 | 21 | 0 | 0.0 | 0.0 | 0.00 | 0.00 | 0.00 | 93 | 1017.5 |
| 20260906104605 | 21 | 0 | 0.0 | 0.0 | 0.00 | 0.00 | 0.00 | 92 | 1017.5 |
| 20260906103111 | 21 | 0 | 0.0 | 0.0 | 0.00 | 0.00 | 0.00 | 92 | 1017.5 |
| 20260906101604 | 22 | 0 | 0.0 | 0.0 | 0.00 | 0.00 | 0.00 | 91 | 1017.3 |
| 20260906094605 | 22 | 0 | 0.0 | 0.0 | 0.00 | 0.00 | 0.00 | 91 | 1017.3 |
| 20260906093107 | 22 | 0 | 0.0 | 0.0 | 0.00 | 0.00 | 0.00 | 91 | 1017.1 |
| 20260906091605 | 22 | 0 | 0.0 | 0.0 | 0.00 | 0.00 | 0.00 | 90 | 1017.0 |
| 20260906090104 | 23 | 0 | 0.0 | 0.0 | 0.00 | 0.00 | 0.00 | 89 | 1016.9 |
| 20260906084608 | 23 | 0 | 0.0 | 0.0 | 0.00 | 0.00 | 0.00 | 89 | 1017.2 |
| 20260906083106 | 23 | 0 | 0.0 | 0.0 | 0.00 | 0.00 | 0.00 | 89 | 1017.0 |
| 20260906081603 | 23 | 0 | 0.0 | 3.2 | 0.00 | 0.00 | 0.00 | 89 | 1017.0 |
| 20260906080107 | 24 | 0 | 0.0 | 1.6 | 0.00 | 0.00 | 0.00 | 89 | 1016.8 |
| 20260906074603 | 24 | 0 | 0.0 | 1.6 | 0.00 | 0.00 | 0.00 | 88 | 1016.8 |
| 20260906073106 | 25 | 85 | 0.0 | 1.6 | 0.00 | 0.00 | 0.00 | 88 | 1016.9 |
| 20260906071602 | 25 | 0 | 0.0 | 3.2 | 0.00 | 0.00 | 0.00 | 86 | 1017.0 |
| 20260906070104 | 25 | 0 | 0.0 | 0.0 | 0.00 | 0.00 | 0.00 | 87 | 1016.9 |
| 20260906064606 | 25 | 0 | 0.0 | 0.0 | 0.00 | 0.00 | 0.00 | 87 | 1017.0 |
| 20260906063104 | 26 | 0 | 0.0 | 1.6 | 0.00 | 0.00 | 0.00 | 87 | 1017.0 |
| 20260906061607 | 26 | 81 | 1.6 | 3.2 | 0.00 | 0.00 | 0.00 | 86 | 1016.7 |
| 20260906060106 | 26 | 0 | 0.0 | 3.2 | 0.00 | 0.00 | 0.00 | 85 | 1016.8 |
| 20260906054608 | 26 | 82 | 0.0 | 6.4 | 0.00 | 0.00 | 0.00 | 85 | 1016.8 |
| 20260906053105 | 27 | 84 | 1.6 | 6.4 | 0.00 | 0.00 | 0.00 | 85 | 1016.8 |
| 20260906051613 | 27 | 0 | 0.0 | 1.6 | 0.00 | 0.00 | 0.00 | 84 | 1016.6 |
| 20260906050105 | 27 | 0 | 1.6 | 4.8 | 0.00 | 0.00 | 0.00 | 83 | 1016.4 |
| 20260906044610 | 27 | 79 | 1.6 | 3.2 | 0.00 | 0.00 | 0.00 | 82 | 1016.2 |
| 20260906043104 | 28 | 0 | 0.0 | 3.2 | 0.00 | 0.00 | 0.00 | 81 | 1016.2 |
| 20260906041605 | 28 | 78 | 0.0 | 3.2 | 0.00 | 0.00 | 0.00 | 80 | 1016.1 |
| 20260906040139 | 28 | 78 | 0.0 | 3.2 | 0.00 | 0.00 | 0.00 | 79 | 1016.0 |
| 20260906034620 | 28 | 67 | 0.0 | 3.2 | 0.00 | 0.00 | 0.00 | 78 | 1016.0 |
| 20260906033108 | 28 | 86 | 0.0 | 3.2 | 0.00 | 0.00 | 0.00 | 77 | 1015.9 |
| 20260906031605 | 29 | 0 | 0.0 | 0.0 | 0.00 | 0.00 | 0.00 | 76 | 1015.8 |
| 20260906030108 | 29 | 0 | 0.0 | 1.6 | 0.00 | 0.00 | 0.00 | 75 | 1015.6 |
| 20260906024615 | 29 | 79 | 1.6 | 3.2 | 0.00 | 0.00 | 0.00 | 75 | 1015.6 |
| 20260906023106 | 30 | 82 | 1.6 | 1.6 | 0.00 | 0.00 | 0.00 | 74 | 1015.4 |
| 20260906021607 | 30 | 86 | 0.0 | 0.0 | 0.00 | 0.00 | 0.00 | 73 | 1015.2 |
| 20260906020106 | 30 | 91 | 0.0 | 3.2 | 0.00 | 0.00 | 0.00 | 72 | 1015.1 |
| 20260906014603 | 30 | 77 | 0.0 | 1.6 | 0.00 | 0.00 | 0.00 | 70 | 1014.8 |
| 20260906013122 | 30 | 0 | 0.0 | 0.0 | 0.00 | 0.00 | 0.00 | 69 | 1014.7 |
| 20260906011608 | 30 | 0 | 0.0 | 0.0 | 0.00 | 0.00 | 0.00 | 69 | 1014.5 |
| 20260906010106 | 29 | 0 | 0.0 | 0.0 | 0.00 | 0.00 | 0.00 | 72 | 1014.5 |
| 20260906004607 | 30 | 0 | 0.0 | 0.0 | 0.00 | 0.00 | 0.00 | 72 | 1014.3 |
| 20260906003102 | 30 | 0 | 0.0 | 0.0 | 0.00 | 0.00 | 0.00 | 72 | 1014.4 |
| 20260906001610 | 30 | 0 | 0.0 | 0.0 | 0.00 | 0.00 | 0.00 | 71 | 1014.4 |
| 20260906000108 | 30 | 0 | 0.0 | 0.0 | 0.00 | 0.00 | 0.00 | 69 | 1014.4 |
| 20260905234603 | 31 | 0 | 0.0 | 0.0 | 0.00 | 0.00 | 0.00 | 70 | 1014.3 |
| 20260905233107 | 30 | 0 | 0.0 | 0.0 | 0.00 | 0.00 | 0.00 | 64 | 1014.3 |
| 20260905231608 | 30 | 0 | 0.0 | 3.2 | 0.00 | 0.00 | 0.00 | 71 | 1014.4 |
| 20260905230109 | 30 | 105 | 0.0 | 1.6 | 0.00 | 0.00 | 0.00 | 72 | 1014.3 |
| 20260905224619 | 30 | 117 | 0.0 | 1.6 | 0.00 | 0.00 | 0.00 | 68 | 1014.5 |
| 20260905223118 | 28 | 0 | 0.0 | 0.0 | 0.00 | 0.00 | 0.00 | 65 | 1014.4 |
| 20260905221606 | 29 | 323 | 1.6 | 8.0 | 0.00 | 0.00 | 0.00 | 75 | 1014.3 |
| 20260905220103 | 30 | 0 | 0.0 | 6.4 | 0.00 | 0.00 | 0.00 | 64 | 1014.5 |
| 20260905214604 | 35 | 18 | 0.0 | 3.2 | 0.00 | 0.00 | 0.00 | 59 | 1014.4 |
| 20260905213107 | 39 | 0 | 0.0 | 0.0 | 0.00 | 0.00 | 0.00 | 42 | 1014.2 |
| 20260905211604 | 37 | 0 | 1.6 | 6.4 | 0.00 | 0.00 | 0.00 | 53 | 1014.3 |
| 20260905210107 | 38 | 37 | 1.6 | 6.4 | 0.00 | 0.00 | 0.00 | 47 | 1014.4 |
| 20260905204606 | 37 | 333 | 1.6 | 8.0 | 0.00 | 0.00 | 0.00 | 53 | 1014.4 |
| 20260905203105 | 37 | 283 | 1.6 | 6.4 | 0.00 | 0.00 | 0.00 | 48 | 1014.5 |
| 20260905201610 | 36 | 316 | 0.0 | 6.4 | 0.00 | 0.00 | 0.00 | 47 | 1014.6 |
| 20260905200109 | 37 | 0 | 0.0 | 3.2 | 0.00 | 0.00 | 0.00 | 51 | 1014.7 |
| 20260905194608 | 38 | 286 | 1.6 | 4.8 | 0.00 | 0.00 | 0.00 | 47 | 1014.8 |
| 20260905193104 | 38 | 0 | 0.0 | 3.2 | 0.00 | 0.00 | 0.00 | 44 | 1015.0 |
| 20260905191609 | 37 | 0 | 0.0 | 6.4 | 0.00 | 0.00 | 0.00 | 53 | 1015.2 |
| 20260905190105 | 37 | 286 | 0.0 | 6.4 | 0.00 | 0.00 | 0.00 | 47 | 1015.3 |
| 20260905184609 | 38 | 240 | 0.0 | 4.8 | 0.00 | 0.00 | 0.00 | 50 | 1015.4 |
| 20260905183109 | 38 | 245 | 0.0 | 3.2 | 0.00 | 0.00 | 0.00 | 54 | 1015.7 |
| 20260905181604 | 37 | 248 | 0.0 | 1.6 | 0.00 | 0.00 | 0.00 | 56 | 1015.9 |
| 20260905180106 | 37 | 256 | 0.0 | 3.2 | 0.00 | 0.00 | 0.00 | 57 | 1016.0 |
| 20260905174603 | 37 | 0 | 0.0 | 1.6 | 0.00 | 0.00 | 0.00 | 58 | 1016.1 |
| 20260905173131 | 35 | 0 | 0.0 | 4.8 | 0.00 | 0.00 | 0.00 | 54 | 1016.1 |
| 20260905171604 | 36 | 262 | 0.0 | 3.2 | 0.00 | 0.00 | 0.00 | 56 | 1016.3 |
| 20260905170127 | 35 | 248 | 0.0 | 3.2 | 0.00 | 0.00 | 0.00 | 60 | 1016.5 |
| 20260905164609 | 35 | 58 | 1.6 | 3.2 | 0.00 | 0.00 | 0.00 | 55 | 1016.7 |
| 20260905163122 | 33 | 342 | 1.6 | 4.8 | 0.00 | 0.00 | 0.00 | 65 | 1016.9 |
| 20260905161615 | 33 | 268 | 0.0 | 3.2 | 0.00 | 0.00 | 0.00 | 65 | 1017.0 |
| 20260905160101 | 33 | 304 | 1.6 | 3.2 | 0.00 | 0.00 | 0.00 | 66 | 1017.0 |
| 20260905154616 | 33 | 252 | 0.0 | 3.2 | 0.00 | 0.00 | 0.00 | 66 | 1017.1 |
| 20260905153102 | 32 | 0 | 0.0 | 3.2 | 0.00 | 0.00 | 0.00 | 69 | 1017.1 |
| 20260905151603 | 31 | 267 | 0.0 | 4.8 | 0.00 | 0.00 | 0.00 | 71 | 1017.1 |
| 20260905150109 | 30 | 275 | 1.6 | 4.8 | 0.00 | 0.00 | 0.00 | 66 | 1017.1 |
| 20260905144605 | 30 | 276 | 1.6 | 6.4 | 0.00 | 0.00 | 0.00 | 73 | 1016.8 |
| 20260905143110 | 30 | 341 | 1.6 | 4.8 | 0.00 | 0.00 | 0.00 | 67 | 1016.8 |
| 20260905141606 | 30 | 302 | 0.0 | 3.2 | 0.00 | 0.00 | 0.00 | 74 | 1016.9 |
| 20260905140105 | 29 | 265 | 0.0 | 1.6 | 0.00 | 0.00 | 0.00 | 69 | 1016.9 |
| 20260905134605 | 28 | 283 | 0.0 | 4.8 | 0.00 | 0.00 | 0.00 | 78 | 1016.9 |
| 20260905133106 | 28 | 281 | 0.0 | 1.6 | 0.00 | 0.00 | 0.00 | 78 | 1016.8 |